#timestamp,LO_Frequency,Hit,StdDev 
1633777215.8,286046994.0,N
1633777235.7,286046997.8,N
1633777255.5,286047002.8,N
1633777275.3,286046997.2,N
1633777295.2,286046995.5,N
1633777315.0,286046997.1,N
1633777315.9,286046997.1,N
1633777335.8,286046996.4,N
1633777355.6,286046995.8,N
1633777375.4,286046994.7,N
1633777395.3,286046993.4,N
1633777415.1,286046994.5,N
1633777435.9,286046990.3,N
1633777455.7,286046990.8,N
1633777475.5,286046991.1,N
1633777495.4,286046994.0,N
1633777515.2,286046992.4,N
1633777535.0,286046990.8,N
1633777535.9,286046990.8,N
1633777555.8,286046989.3,N
1633777575.6,286046988.4,N
1633777595.5,286046988.3,N
1633777615.3,286046985.9,Y
1633777635.1,286046991.2,P
1633777655.9,286046991.0,P
1633777675.7,286046988.7,P
1633777695.6,286046986.9,Y
1633777715.4,286046995.3,P
1633777735.2,286046997.1,N
1633777755.1,286046997.6,N
1633777756.0,286046997.6,N
1633777775.8,286046998.8,N
1633777795.6,286046997.6,N
1633777815.5,286046999.5,N
1633777835.3,286046999.5,N
1633777855.2,286046998.2,N
1633777875.9,286046996.5,N
1633777895.7,286046998.0,N
1633777915.6,286046993.8,N
1633777935.4,286046993.8,N
1633777955.2,286046995.1,N
1633777975.1,286046996.6,N
1633777976.0,286046996.6,N
1633777995.8,286046997.8,N
1633778015.7,286046999.5,N
1633778035.5,286046999.4,N
1633778055.3,286046999.2,N
1633778075.2,286046996.9,N
1633778095.0,286046995.3,N
1633778095.9,286046995.3,N
1633778115.7,286046994.2,N
1633778135.6,286046993.3,Y
1633778155.4,286046996.7,P
1633778175.3,286047002.4,P
1633778195.1,286047003.6,N
1633778196.0,286047003.6,N
1633778215.8,286047002.3,N
1633778235.7,286047000.7,N
1633778255.5,286047000.7,N
1633778275.4,286047002.3,N
1633778295.2,286047000.8,N
1633778315.0,286047003.7,N
1633778315.9,286047003.7,N
1633778335.8,286047007.0,N
1633778355.6,286047003.2,N
1633778375.4,286047000.7,N
1633778395.3,286047002.8,N
1633778415.1,286047001.3,N
1633778435.9,286047002.4,N
1633778485.7,286047003.1,E
1633778495.6,286047004.1,N
1633778515.5,286047006.0,P
1633778535.3,286047005.9,P
1633778555.2,286046998.3,N
1633778575.9,286046998.8,N
1633778595.7,286047000.5,N
1633778615.6,286046996.6,N
1633778635.4,286046993.3,N
1633778655.2,286046994.2,N
1633778675.1,286046991.8,N
1633778676.0,286046991.8,N
1633778695.8,286046996.7,N
1633778715.7,286046999.5,N
1633778735.5,286046997.8,N
1633778755.3,286046996.2,N
1633778775.2,286046991.8,N
1633778795.0,286046992.2,N
1633778795.9,286046992.2,N
1633778815.8,286046995.9,N
1633778835.6,286046996.2,N
1633778855.4,286046994.8,N
1633778875.3,286046991.9,N
1633778895.1,286046994.5,N
1633778915.8,286046991.0,N
1633778935.7,286046994.5,N
1633778955.5,286046996.3,N
1633778975.4,286046992.1,N
1633778995.2,286046988.9,N
1633779015.0,286046989.0,N
1633779015.9,286046989.0,N
1633779035.8,286046992.1,N
1633779055.6,286046989.1,N
1633779075.5,286046991.0,N
1633779095.3,286046989.7,Y
1633779115.1,286046993.4,P
1633779135.9,286046994.5,P
1633779155.7,286046994.4,P
1633779175.5,286046992.9,Y
1633779195.4,286046997.5,P
1633779215.2,286046997.5,N
1633779235.1,286046995.3,N
1633779236.0,286046995.3,Y
1633779255.8,286046996.9,P
1633779275.6,286046997.7,P
1633779295.5,286046995.1,P
1633779315.3,286046999.2,N
1633779335.2,286046996.5,N
1633779355.9,286047001.8,N
1633779375.7,286047001.5,N
1633779395.6,286047001.2,N
1633779415.4,286047001.9,N
1633779435.2,286047004.4,N
1633779455.1,286047000.2,N
1633779456.0,286047000.2,N
1633779475.8,286047000.8,N
1633779495.7,286046999.4,N
1633779515.5,286046997.8,N
1633779535.3,286046999.5,N
1633779555.2,286046995.3,N
1633779575.0,286046993.4,N
1633779575.9,286046993.4,N
1633779595.7,286046995.9,N
1633779615.6,286046995.1,N
1633779635.4,286046996.0,N
1633779655.3,286046994.3,N
1633779675.1,286046993.9,N
1633779695.8,286046997.7,N
1633779715.7,286046994.1,N
1633779735.5,286046994.2,N
1633779755.4,286046996.1,N
1633779775.2,286046994.7,N
1633779795.0,286046991.9,N
1633779795.9,286046991.9,N
1633779815.8,286046992.7,N
1633779835.6,286046994.8,N
1633779855.4,286046991.0,N
1633779875.3,286046988.5,Y
1633779895.1,286046991.0,P
1633779915.9,286047017.2,P
1633779935.7,286046990.8,N
1633779955.5,286046992.5,N
1633779975.4,286047002.4,N
1633779995.2,286046999.7,N
1633780015.0,286046998.2,N
1633780016.0,286046998.2,N
1633780035.8,286046996.6,N
1633780055.6,286047001.0,N
1633780075.5,286047000.2,N
1633780095.3,286046998.3,N
1633780115.1,286047007.1,N
1633780135.9,286047007.6,N
1633780155.7,286047005.7,N
1633780175.6,286047004.4,N
1633780195.4,286047001.6,N
1633780215.2,286046998.2,N
1633780235.1,286046996.6,N
1633780236.0,286047011.9,N
1633780255.8,286046998.5,N
1633780275.6,286047000.2,N
1633780295.5,286047003.3,N
1633780315.3,286047001.7,N
1633780335.2,286047000.4,N
1633780355.9,286046996.7,N
1633780375.7,286046996.1,N
1633780395.6,286046993.8,N
1633780415.4,286046995.6,N
1633780435.2,286046999.1,N
1633780455.1,286046997.7,N
1633780456.0,286046997.7,N
1633780475.8,286046999.3,N
1633780495.7,286046997.0,N
1633780515.5,286046998.1,N
1633780535.3,286046993.4,N
1633780555.2,286046990.4,N
1633780575.0,286046986.9,N
1633780575.9,286046986.9,N
1633780595.7,286046988.0,N
1633780615.6,286046986.5,N
1633780635.4,286046984.4,N
1633780655.3,286046982.2,N
1633780675.1,286046985.2,N
1633780676.0,286046985.2,N
1633780695.8,286046983.0,N
1633780715.7,286046984.5,N
1633780735.5,286046989.3,N
1633780755.4,286046990.1,N
1633780775.2,286046989.2,N
1633780795.0,286046991.3,N
1633780795.9,286046991.3,N
